This demonstration page uses our WeatherBlox Daily Observations layout. Learn more.

38.80484, -77.04692

Hourly Observations for November 4, 2019

Temp ( °F °C ) Dew Point ( °F °C ) Humidity (%) Winds ( mph kmh ) Pressure ( in mb ) Visibility ( mi km ) Precip ( " mm )
12:52 am 00:52 Clear 42 5.6 35 1.7 76 76 NE 3 6 30.3 1026 10 16.0934 0 0
1:52 am 01:52 Clear 39 3.9 35 1.7 86 86 N 6 9 30.31 1026 10 16.0934 0 0
1:54 am 01:54 Partly Cloudy 39 3.9 35 1.7 86 86 NNW 5 7 30.31 1026 10 16.0934 0 0
2:52 am 02:52 Partly Cloudy 41 5 35 1.7 79 79 Calm 30.3 1026 10 16.0934 0 0
3:52 am 03:52 Partly Cloudy 39 3.9 35 1.7 86 86 NNW 5 7 30.32 1027 10 16.0934 0 0
4:52 am 04:52 Partly Cloudy 39 3.9 35 1.7 86 86 ENE 5 7 30.32 1027 10 16.0934 0 0
6:52 am 06:52 Mostly Sunny 40 4.4 36 2.2 86 86 NE 5 7 30.34 1027 10 16.0934 0 0
7:52 am 07:52 Mostly Sunny 44 6.7 38 3.3 79 79 Calm 30.36 1028 10 16.0934 0 0
8:52 am 08:52 Mostly Sunny 48 8.9 38 3.3 68 68 S 3 6 30.37 1029 10 16.0934 0 0
9:52 am 09:52 Sunny 50 10 38 3.3 63 63 S 9 15 30.37 1029 10 16.0934 0 0
10:52 am 10:52 Sunny 56 13.3 40 4.4 55 55 S 12 19 30.35 1028 10 16.0934 0 0
11:52 am 11:52 Partly Cloudy 59 15 36 2.2 42 42 S 17 28 30.32 1027 10 16.0934 0 0
12:52 pm 12:52 Partly Cloudy 60 15.6 36 2.2 41 41 S 16 26 30.29 1026 10 16.0934 0 0
1:52 pm 13:52 Partly Cloudy 60 15.6 37 2.8 42 42 S 15 24 30.27 1025 10 16.0934 0 0
2:52 pm 14:52 Partly Cloudy 60 15.6 38 3.3 44 44 S 17 28 30.25 1025 10 16.0934 0 0
4:52 pm 16:52 Mostly Cloudy 57 13.9 41 5 55 55 S 9 15 30.25 1024 10 16.0934 0 0
5:52 pm 17:52 Mostly Cloudy 56 13.3 40 4.4 55 55 SSE 10 17 30.25 1024 10 16.0934 0 0
6:52 pm 18:52 Mostly Cloudy 54 12.2 40 4.4 59 59 SSE 9 15 30.25 1024 10 16.0934 0 0
7:52 pm 19:52 Mostly Cloudy 54 12.2 42 5.6 64 64 S 12 19 30.25 1024 10 16.0934 0 0
8:52 pm 20:52 Mostly Cloudy 52 11.1 43 6.1 72 72 S 7 11 30.25 1025 10 16.0934 0 0
9:52 pm 21:52 Mostly Cloudy 51 10.6 43 6.1 74 74 SSW 3 6 30.26 1025 10 16.0934 0 0
10:52 pm 22:52 Mostly Cloudy 51 10.6 44 6.7 77 77 Calm 30.25 1025 10 16.0934 0 0
11:52 pm 23:52 Mostly Cloudy 49 9.4 44 6.7 83 83 SSW 7 11 30.25 1024 10 16.0934 0 0

Powered by AerisWeather